Flag for Japan Weather past 2 weeks in Utsunomiya, Japan

Now
38 °F

Light rain. Overcast.


Feels Like: 34 °F
Forecast: 35 / 59 °F
Wind: 6 mph from North

Location: Mito

Current Time: Mar 4, 2015 at 4:24:19 AM

Latest Report: Mar 4, 2015 at 3:00 AM


Visibility: 5 mi

Pressure: 29.80 "Hg

Humidity: 96%

Dew point: 37 °F

Location of UtsunomiyaLocation

Historic Weather in Utsunomiya — Graph

°F

Utsunomiya temperature yesterday

Maximum temperature yesterday: 44 °F (at 11:00 AM)
Minimum temperature yesterday: 33 °F (at 1:00 AM)
Average temperature yesterday: 39 °F

Past Weeks' High & Low Weather Summary

 TemperatureHumidityPressure
High55 °F (Feb 27, 1:00 PM)97% (Feb 23, 4:00 AM)30.42 "Hg (Feb 23, 4:00 AM)
Low28 °F (Feb 21, 6:00 AM)18% (Feb 27, 2:00 PM)29.38 "Hg (Mar 1, 9:00 PM)
Average42 °F76%30.01 "Hg
* Reported Feb 17 4:00 AM — Mar 4 3:00 AM, Utsunomiya, Weather by CustomWeather, © 2015

Note: Actual official high and low records may vary slightly from our data, if they occured in-between our weather recording intervals... More about our weather records

Advertising

Utsunomiya weather history for previous 24 hours

 ConditionsComfort  
Time TempWeatherWind HumidityBarometerVisibility
3:00 AM
Wed, Mar 4
38 °FLight rain. Overcast.6 mph96%29.80 "Hg5 mi
2:00 AM38 °FChilly.6 mph94%29.86 "HgN/A
1:00 AM39 °FChilly.No wind87%29.92 "HgN/A
12:00 AM40 °FChilly.No wind81%29.95 "HgN/A
11:00 PM
Tue, Mar 3
39 °FChilly.5 mph80%29.97 "HgN/A
10:00 PM41 °FQuite cool.3 mph71%30.01 "HgN/A
9:00 PM41 °FOvercast.5 mph74%30.05 "Hg9 mi
8:00 PM41 °FQuite cool.6 mph74%30.05 "HgN/A
7:00 PM41 °FQuite cool.8 mph71%30.08 "HgN/A
6:00 PM41 °FQuite cool.8 mph68%30.10 "HgN/A
5:00 PM42 °FQuite cool.10 mph67%30.09 "HgN/A
4:00 PM42 °FQuite cool.8 mph64%30.13 "HgN/A
3:00 PM42 °FOvercast.9 mph63%30.15 "Hg12 mi
2:00 PM42 °FQuite cool.9 mph62%30.16 "HgN/A
1:00 PM42 °FQuite cool.9 mph64%30.16 "HgN/A
12:00 PM43 °FQuite cool.8 mph58%30.17 "HgN/A
11:00 AM44 °FQuite cool.8 mph54%30.19 "HgN/A
10:00 AM41 °FQuite cool.5 mph67%30.20 "HgN/A
9:00 AM38 °FOvercast.3 mph73%30.18 "Hg12 mi
8:00 AM36 °FChilly.3 mph76%30.19 "HgN/A
7:00 AM36 °FChilly.1 mph75%30.15 "HgN/A
5:00 AM35 °FChilly.3 mph72%30.15 "HgN/A
Weather by CustomWeather, © 2015

See weather overviewHow to use our weather pages